Weather History for Moose Lake, MN

Change the Weather History Date:

Monday, November 18, 2013

  Actual Average Record
Temperature  
Mean Temperature 24 °F -  
Max Temperature 32 °F 36 °F 64 °F (1953)
Min Temperature 17 °F 20 °F -4 °F (1989)
Degree Days  
Heating Degree Days 40    
Moisture  
Dew Point 18 °F    
Average Humidity 71    
Maximum Humidity 93    
Minimum Humidity 60    
Precipitation  
Precipitation 0.00 in - - ()
Sea Level Pressure  
Sea Level Pressure 30.02 in    
Wind  
Wind Speed 13 mph (WNW)    
Max Wind Speed 20 mph    
Max Gust Speed 32 mph    
Visibility 10 miles    
Events      
Averages and records for this station are not official NWS values.
T = Trace of Precipitation, MM = Missing Value Source: NWS Daily Summary

Daily Weather History Graph

Daily Weather History Graph

Search for Another Location

Airport:

Trip Planner

Search our weather history database for the weather conditions in past years. The results will help you decide how hot, cold, wet, or windy it might be!

Date:

Astronomy

Nov. 18, 2013 Rise Set
Actual Time 7:17 AM CST 4:34 PM CST
Civil Twilight 6:44 AM CST 5:08 PM CST
Nautical Twilight 6:07 AM CST 5:44 PM CST
Astronomical Twilight 5:31 AM CST 6:20 PM CST
Moon 5:36 PM CST (11/18) 8:07 AM CST (11/18)
Length of Visible Light 10h 23m
Length of Day
9h 17m
Full, 99% of the Moon is Illuminated
Nov 18
Full
Nov 25
Last Quarter
Dec 2
New
Dec 9
First Quarter
Dec 17
Full

Hourly Weather History & Observations

Time (CST) Temp. Windchill Dew Point Humidity Pressure Visibility Wind Dir Wind Speed Gust Speed Precip Events Conditions
12:06 AM 28.4 °F 15.4 °F 23.0 °F 80% 29.70 in 10.0 mi WNW 19.6 mph 28.8 mph N/A   Overcast
12:26 AM 28.4 °F 16.2 °F 21.2 °F 74% 29.71 in 10.0 mi WNW 17.3 mph 20.7 mph N/A   Overcast
12:47 AM 28.4 °F 15.4 °F 21.2 °F 74% 29.72 in 10.0 mi WNW 19.6 mph 26.5 mph N/A   Overcast
1:07 AM 28.4 °F 17.0 °F 19.4 °F 69% 29.73 in 10.0 mi West 15.0 mph 28.8 mph N/A   Overcast
1:26 AM 28.4 °F 16.6 °F 19.4 °F 69% 29.73 in 10.0 mi WNW 16.1 mph 23.0 mph N/A   Overcast
1:46 AM 28.4 °F 18.0 °F 19.4 °F 69% 29.74 in 10.0 mi WNW 12.7 mph 19.6 mph N/A   Overcast
2:06 AM 28.4 °F 16.6 °F 19.4 °F 69% 29.76 in 10.0 mi NW 16.1 mph 21.9 mph N/A   Overcast
2:27 AM 28.4 °F 18.5 °F 19.4 °F 69% 29.77 in 10.0 mi NW 11.5 mph 24.2 mph N/A   Overcast
2:47 AM 28.4 °F 17.0 °F 19.4 °F 69% 29.79 in 10.0 mi NW 15.0 mph 28.8 mph N/A   Overcast
3:07 AM 28.4 °F 15.4 °F 17.6 °F 64% 29.79 in 10.0 mi NW 19.6 mph 27.6 mph N/A   Overcast
3:26 AM 28.4 °F 16.2 °F 17.6 °F 64% 29.81 in 10.0 mi NW 17.3 mph 26.5 mph N/A   Overcast
3:46 AM 28.4 °F 18.0 °F 17.6 °F 64% 29.81 in 10.0 mi WNW 12.7 mph 32.2 mph N/A   Overcast
4:07 AM 28.4 °F 17.0 °F 19.4 °F 69% 29.83 in 10.0 mi WNW 15.0 mph 26.5 mph N/A   Overcast
4:26 AM 28.4 °F 15.4 °F 19.4 °F 69% 29.84 in 10.0 mi NW 19.6 mph 27.6 mph N/A   Overcast
4:47 AM 28.4 °F 15.8 °F 19.4 °F 69% 29.85 in 10.0 mi NW 18.4 mph 26.5 mph N/A   Overcast
5:07 AM 26.6 °F 15.2 °F 19.4 °F 74% 29.86 in 10.0 mi NW 13.8 mph 20.7 mph N/A   Overcast
5:26 AM 26.6 °F 14.3 °F 19.4 °F 74% 29.86 in 10.0 mi NW 16.1 mph 24.2 mph N/A   Overcast
5:46 AM 26.6 °F 15.2 °F 19.4 °F 74% 29.87 in 10.0 mi NW 13.8 mph 24.2 mph N/A   Overcast
6:06 AM 26.6 °F 14.3 °F 19.4 °F 74% 29.88 in 10.0 mi WNW 16.1 mph 21.9 mph N/A   Overcast
6:26 AM 28.4 °F 19.7 °F 19.4 °F 69% 29.89 in 10.0 mi NW 9.2 mph 23.0 mph N/A   Overcast
6:46 AM 26.6 °F 15.2 °F 19.4 °F 74% 29.90 in 10.0 mi WNW 13.8 mph 23.0 mph N/A   Overcast
7:07 AM 26.6 °F 15.7 °F 19.4 °F 74% 29.91 in 10.0 mi NW 12.7 mph 20.7 mph N/A   Overcast
7:27 AM 26.6 °F 19.1 °F 19.4 °F 74% 29.93 in 10.0 mi NW 6.9 mph 17.3 mph N/A   Overcast
7:47 AM 26.6 °F 16.8 °F 19.4 °F 74% 29.94 in 10.0 mi WNW 10.4 mph 17.3 mph N/A   Overcast
8:07 AM 26.6 °F 17.5 °F 19.4 °F 74% 29.95 in 10.0 mi WNW 9.2 mph 18.4 mph N/A   Overcast
8:27 AM 26.6 °F 16.2 °F 17.6 °F 69% 29.96 in 10.0 mi NW 11.5 mph 18.4 mph N/A   Overcast
8:47 AM 26.6 °F 16.8 °F 17.6 °F 69% 29.97 in 10.0 mi WNW 10.4 mph 20.7 mph N/A   Overcast
9:07 AM 26.6 °F 16.2 °F 17.6 °F 69% 29.99 in 10.0 mi NW 11.5 mph 18.4 mph N/A   Overcast
9:27 AM 26.6 °F 16.8 °F 17.6 °F 69% 30.00 in 10.0 mi NW 10.4 mph 18.4 mph N/A   Overcast
9:47 AM 28.4 °F 18.5 °F 19.4 °F 69% 30.01 in 10.0 mi NW 11.5 mph 19.6 mph N/A   Overcast
10:07 AM 28.4 °F 18.0 °F 19.4 °F 69% 30.02 in 10.0 mi WNW 12.7 mph 21.9 mph N/A   Overcast
10:27 AM 28.4 °F 18.0 °F 17.6 °F 64% 30.04 in 10.0 mi NW 12.7 mph 21.9 mph N/A   Overcast
10:46 AM 28.4 °F 18.0 °F 19.4 °F 69% 30.04 in 10.0 mi NW 12.7 mph 19.6 mph N/A   Overcast
11:07 AM 28.4 °F 19.7 °F 19.4 °F 69% 30.05 in 10.0 mi WNW 9.2 mph - N/A   Overcast
11:27 AM 28.4 °F 19.1 °F 19.4 °F 69% 30.06 in 10.0 mi WNW 10.4 mph 18.4 mph N/A   Overcast
11:47 AM 28.4 °F 17.5 °F 17.6 °F 64% 30.06 in 10.0 mi WNW 13.8 mph 18.4 mph N/A   Overcast
12:06 PM 30.2 °F 20.2 °F 17.6 °F 60% 30.06 in 10.0 mi NW 12.7 mph 17.3 mph N/A   Overcast
12:26 PM 30.2 °F 20.2 °F 19.4 °F 64% 30.07 in 10.0 mi WNW 12.7 mph 16.1 mph N/A   Overcast
12:47 PM 30.2 °F 21.3 °F 17.6 °F 60% 30.08 in 10.0 mi WNW 10.4 mph - N/A   Overcast
1:07 PM 30.2 °F 21.9 °F 19.4 °F 64% 30.09 in 10.0 mi WNW 9.2 mph - N/A   Overcast
1:27 PM 30.2 °F 20.8 °F 19.4 °F 64% 30.09 in 10.0 mi WNW 11.5 mph 16.1 mph N/A   Overcast
1:47 PM 30.2 °F 20.2 °F 17.6 °F 60% 30.09 in 10.0 mi WNW 12.7 mph 17.3 mph N/A   Overcast
2:06 PM 30.2 °F 20.2 °F 17.6 °F 60% 30.10 in 10.0 mi WNW 12.7 mph 18.4 mph N/A   Mostly Cloudy
2:27 PM 32.0 °F 22.5 °F 19.4 °F 60% 30.11 in 10.0 mi WNW 12.7 mph 19.6 mph N/A   Mostly Cloudy
2:47 PM 30.2 °F 22.6 °F 17.6 °F 60% 30.12 in 10.0 mi WNW 8.1 mph - N/A   Overcast
3:07 PM 30.2 °F 22.6 °F 17.6 °F 60% 30.12 in 10.0 mi WNW 8.1 mph 17.3 mph N/A   Overcast
3:27 PM 30.2 °F 21.9 °F 17.6 °F 60% 30.13 in 10.0 mi NW 9.2 mph - N/A   Overcast
3:47 PM 30.2 °F 25.4 °F 19.4 °F 64% 30.13 in 10.0 mi WNW 4.6 mph - N/A   Overcast
4:06 PM 28.4 °F 19.7 °F 19.4 °F 69% 30.14 in 10.0 mi WNW 9.2 mph - N/A   Overcast
4:26 PM 28.4 °F 19.7 °F 19.4 °F 69% 30.15 in 10.0 mi NW 9.2 mph - N/A   Overcast
4:46 PM 28.4 °F 19.1 °F 17.6 °F 64% 30.15 in 10.0 mi WNW 10.4 mph - N/A   Overcast
5:07 PM 28.4 °F 19.7 °F 17.6 °F 64% 30.15 in 10.0 mi NW 9.2 mph - N/A   Overcast
5:27 PM 28.4 °F 23.3 °F 17.6 °F 64% 30.16 in 10.0 mi NW 4.6 mph - N/A   Overcast
5:47 PM 28.4 °F 20.4 °F 17.6 °F 64% 30.16 in 10.0 mi NNW 8.1 mph - N/A   Overcast
6:06 PM 28.4 °F 24.6 °F 17.6 °F 64% 30.17 in 10.0 mi WNW 3.5 mph - N/A   Overcast
6:27 PM 26.6 °F 21.2 °F 17.6 °F 69% 30.18 in 10.0 mi WNW 4.6 mph - N/A   Overcast
6:47 PM 26.6 °F 20.0 °F 17.6 °F 69% 30.18 in 10.0 mi WNW 5.8 mph - N/A   Overcast
7:07 PM 28.4 °F 21.2 °F 17.6 °F 64% 30.18 in 10.0 mi WNW 6.9 mph - N/A   Overcast
7:27 PM 26.6 °F 22.6 °F 17.6 °F 69% 30.18 in 10.0 mi NW 3.5 mph - N/A   Overcast
7:47 PM 26.6 °F 22.6 °F 19.4 °F 74% 30.18 in 10.0 mi WNW 3.5 mph - N/A   Overcast
8:06 PM 26.6 °F 21.2 °F 17.6 °F 69% 30.18 in 10.0 mi NNW 4.6 mph - N/A   Mostly Cloudy
8:27 PM 24.8 °F - 17.6 °F 74% 30.19 in 10.0 mi Calm Calm - N/A   Scattered Clouds
8:46 PM 23.0 °F - 17.6 °F 80% 30.19 in 10.0 mi Calm Calm - N/A   Clear
9:07 PM 21.2 °F 16.4 °F 17.6 °F 86% 30.20 in 10.0 mi SW 3.5 mph - N/A   Scattered Clouds
9:27 PM 19.4 °F - 17.6 °F 93% 30.20 in 10.0 mi Calm Calm - N/A   Scattered Clouds
9:47 PM 21.2 °F - 17.6 °F 86% 30.19 in 10.0 mi Calm Calm - N/A   Clear
10:06 PM 19.4 °F - 15.8 °F 86% 30.19 in 10.0 mi Calm Calm - N/A   Clear
10:27 PM 17.6 °F - 15.8 °F 93% 30.20 in 10.0 mi Calm Calm - N/A   Clear
10:47 PM 17.6 °F - 14.0 °F 86% 30.20 in 10.0 mi Calm Calm - N/A   Clear
11:06 PM 17.6 °F - 15.8 °F 93% 30.21 in 10.0 mi Calm Calm - N/A   Clear
11:27 PM 17.6 °F - 14.0 °F 86% 30.20 in 10.0 mi Calm Calm - N/A   Clear
11:47 PM 17.6 °F - 14.0 °F 86% 30.21 in 10.0 mi Calm Calm - N/A   Clear